Home   Weather   Nikaia   Past weeks

Flag for Greece Past Weather in Nikaia, Greece — Yesterday and Last 2 Weeks

Now
66 °F

Sunny.


Feels Like: 66 °F
Forecast: 51 / 69 °F
Wind: No wind

Location: Elefsis Airport

Current Time: Apr 24, 2017 at 11:01:35 am

Latest Report: Apr 24, 2017 at 10:20 am


Visibility: 10 mi

Pressure: 30.15 "Hg

Humidity: 30%

Dew Point: 34 °F

Location of NikaiaLocation

Past Weather in Nikaia — Graph

°F

Nikaia Temperature Yesterday

Maximum temperature yesterday: 70 °F (at 2:20 pm)
Minimum temperature yesterday: 43 °F (at 3:50 am)
Average temperature yesterday: 57 °F

High & Low Weather Summary for the Past Weeks

 TemperatureHumidityPressure
High82 °F (Apr 12, 1:20 pm)94% (Apr 18, 12:50 am)30.24 "Hg (Apr 18, 12:50 am)
Low43 °F (Apr 23, 3:50 am)19% (Apr 12, 1:20 pm)29.74 "Hg (Apr 13, 5:20 pm)
Average60 °F54%29.97 "Hg
* Reported Apr 9 9:20 am — Apr 24 9:20 am, Nikaia, Weather by CustomWeather, © 2017

Note: Actual official high and low records may vary slightly from our data, if they occured in-between our weather recording intervals... More about our weather records

Advertising

Nikaia Weather History for the Previous 24 Hours

Scroll right to see more
 ConditionsComfort  
Time TempWeatherWind HumidityBarometerVisibility
9:20 am
Mon, Apr 24
64 °FSunny.No wind34%30.15 "Hg10 mi
8:50 am64 °FSunny.No wind40%30.15 "Hg10 mi
8:20 am59 °FSunny.No wind55%30.12 "Hg10 mi
7:50 am55 °FSunny.No wind63%30.12 "Hg10 mi
7:20 am52 °FSunny.No wind67%30.09 "Hg10 mi
6:50 am50 °FSunny.2 mph71%30.09 "Hg10 mi
6:20 am50 °FClear.2 mph71%30.09 "Hg10 mi
5:50 am48 °FClear.No wind76%30.09 "Hg10 mi
5:20 am48 °FClear.No wind76%30.09 "Hg10 mi
4:50 am50 °FClear.No wind71%30.09 "Hg10 mi
4:20 am52 °FClear.2 mph67%30.09 "Hg10 mi
3:50 am54 °FClear.5 mph63%30.09 "Hg10 mi
3:20 am57 °FClear.6 mph59%30.07 "Hg10 mi
2:50 am55 °FClear.7 mph59%30.09 "Hg10 mi
2:20 am54 °FClear.5 mph58%30.09 "Hg10 mi
1:50 am57 °FClear.5 mph51%30.09 "Hg10 mi
1:20 am57 °FClear.No wind55%30.09 "Hg10 mi
12:50 am59 °FClear.8 mph51%30.09 "Hg10 mi
12:20 am55 °FClear.8 mph59%30.09 "Hg10 mi
11:50 pm
Sun, Apr 23
54 °FClear.2 mph63%30.09 "Hg10 mi
11:20 pm55 °FClear.3 mph63%30.09 "Hg10 mi
10:50 pm55 °FClear.3 mph63%30.09 "Hg10 mi
9:50 pm57 °FClear.No wind59%30.09 "Hg10 mi
9:20 pm57 °FClear.No wind63%30.07 "Hg10 mi
8:50 pm59 °FClear.3 mph59%30.07 "Hg10 mi
8:20 pm61 °FClear.5 mph55%30.07 "Hg10 mi
7:50 pm63 °FPassing clouds.6 mph52%30.04 "HgN/A
7:20 pm63 °FSunny.7 mph49%30.04 "Hg10 mi
6:50 pm64 °FPassing clouds.9 mph46%30.04 "HgN/A
5:50 pm66 °FPassing clouds.12 mph43%30.01 "HgN/A
5:20 pm66 °FPassing clouds.12 mph35%30.01 "HgN/A
4:50 pm68 °FPassing clouds.12 mph26%30.01 "HgN/A
4:20 pm70 °FPassing clouds.14 mph23%30.01 "HgN/A
3:50 pm70 °FPassing clouds.12 mph25%30.01 "HgN/A
2:50 pm70 °FPassing clouds.12 mph23%30.01 "HgN/A
2:20 pm70 °FPassing clouds.14 mph23%30.01 "HgN/A
1:50 pm68 °FPassing clouds.9 mph24%30.04 "HgN/A
1:20 pm66 °FPassing clouds.9 mph28%30.04 "HgN/A
12:50 pm68 °FPassing clouds.12 mph23%30.04 "HgN/A
12:20 pm66 °FPassing clouds.9 mph28%30.04 "HgN/A
11:50 am64 °FPassing clouds.10 mph24%30.04 "HgN/A
11:20 am64 °FSunny.7 mph24%30.04 "Hg10 mi
Weather by CustomWeather, © 2017

See weather overviewHow to use our weather pages